Regional Weather Roundup
Issued by NWS Portland, ME

Home | Current Version | Previous Version | Text Only | Print | Product List | Glossary On
Versions: 1 2 3 4 5 6 7 8 9 10 11 12 13 14 15 16 17 18 19 20 21 22 23 24 25 26 27 28 29 30 31 32 33 34 35 36 37 38 39 40 41 42 43 44 45 46 47 48 49 50
929
ASUS41 KGYX 201410
RWRGYX
WEATHER ROUNDUP FOR MAINE AND NEW HAMPSHIRE
NATIONAL WEATHER SERVICE GRAY ME
900 AM EST SAT JAN 20 2018

MEZ002-005-006-010-012-015-018-020-021-024-026-027-029-201500-
MAINE

CITY           SKY/WX    TMP DP  RH WIND       PRES   REMARKS
PORTLAND       CLOUDY    33  22  63 S17       29.59R
SANFORD        FAIR      32  22  66 SW10G17   29.60S
BAR HARBOR     PTSUNNY   36  31  82 SW13G20   29.53S
WISCASSET      FAIR      35  25  66 SW5G18    29.57R
ROCKLAND       FAIR      37  30  75 W16       29.55S
FRYEBURG       FAIR      26  22  84 CALM      29.55R
LEWISTONAUBURN FAIR      31  23  72 W6        29.56R
AUGUSTA        FAIR      31  21  66 SW7       29.54S
WATERVILLE     FAIR      29  24  82 S6        29.50S
BANGOR         CLOUDY    31  24  75 SW3       29.53F
GREENVILLE     NOT AVBL
MILLINOCKET    FAIR      27  22  81 MISG      29.45F
HOULTON        CLOUDY    28  22  78 SW10G21   29.40F WCI  19
PRESQUE ISLE   CLOUDY    29  23  78 S12       29.38F WCI  19
FRENCHVILLE    CLOUDY    24  22  91 S9        29.27F
CARIBOU        CLOUDY    29  22  75 SW10      29.34F WCI  20
$$

NHZ002-005-008-009-011-012-014-201500-
NEW HAMPSHIRE

CITY           SKY/WX    TMP DP  RH WIND       PRES   REMARKS
PORTSMOUTH     PTSUNNY   34  22  59 SW10      29.61S
ROCHESTER      FAIR      31  23  72 CALM      29.60S
NASHUA         FAIR      34  23  64 VRB3      29.67R
MANCHESTER     PTSUNNY   34  22  61 S8        29.63R
CONCORD        FAIR      29  21  72 S3        29.63S
LACONIA        FAIR      32  21  64 SW10      29.60F
PLYMOUTH       FAIR      26  24  89 E3        29.60F
BERLIN         FAIR      34  23  64 VRB6      29.53R
WHITEFIELD     FAIR      28  24  85 SW6       29.59R
JAFFREY        FAIR      32  23  69 SW10G20   29.63S
KEENE          FAIR      28  24  85 NE5       29.71R
LEBANON        FAIR      31  22  69 E9        29.63R
MT WASHINGTON  FOG       14  14 100 W76         N/A  VSB 1/16WCI -15
$$

VTZ005-007-008-201500-
VERMONT

CITY           SKY/WX    TMP DP  RH WIND       PRES   REMARKS
ST JOHNSBURY     N/A     30  23  75 MISG      29.57S
MONTPELIER     FAIR      35  24  64 SW8       29.62R
BURLINGTON     PTSUNNY   36  22  56 S16       29.64S
$$

MAZ007-012-024-CTZ003-RIZ002-NYZ038-NYZ072-201500-
SOUTHERN NEW ENGLAND AND NY

CITY           SKY/WX    TMP DP  RH WIND       PRES   REMARKS
BOSTON         PTSUNNY   38  23  55 SW21      29.69S
WORCESTER      FAIR      35  19  52 W24G32    29.66R
NANTUCKET      FAIR      41  37  86 SW22      29.80S
PROVIDENCE     PTSUNNY   41  24  51 SW17G25   29.76S
HARTFORD       PTSUNNY   38  23  55 S12       29.78R
ALBANY         PTSUNNY   31  20  63 S5        29.79R
NEW YORK CITY  PTSUNNY   43  22  43 SW14G24   29.88R
$$

ANZ081-ANZ082-ANZ150-NHZ014-MEZ023>029-201500-
COASTAL MARINE OBSERVATIONS

STATION/POSITION TIME  TEMP    WIND        PRES    WAVE
                       AIR SEA DIR/SP/G            HT/PER
                 (UTC) (F)     (DEG/KT/KT) (MB)    (FT/S)
MOUNT DESERT ROC 1400   41     200/ 31/ 35 1000.2F
MATINICUS ROCK   1400   40     230/ 30/ 34  999.7F
ISLE OF SHOALS   1400   37     220/ 22/ 24 1002.8F
JEFFREYS LEDGE   1336      43                N/A     6/ 6
GEORGES BANK BUO 1250   48 58              1009.8    8/ 9
$$

.............KEY..............
   WCI - WIND CHILL
   TC  - TEMPERATURE IN CELSIUS
   VSB - VISIBILITY IN MILES
   HX  - HEAT INDEX
   FAIR- INDICATES FEW OR NO CLOUDS BELOW 12,000 FT, WITH NO
         SIGNIFICANT WEATHER AND/OR OBSTRUCTIONS TO VISIBILITY.






USA.gov is the U.S. government's official web portal to all federal, state and local government web resources and services.